Overview Statistics Trail Chart Weather Telemetry Raw packets
 

This is the latest recevied weather packets stored in our database for station/object CT2IRJ-11. If no packets are shown the sender has not sent any weather packets the latest 10 day(s).

<< 1 2 3 4 5 6 >>
Time Temp. Humidity Pressure Rain* Wind** Luminosity Snow
1788607506 33.89° C 48% 1018.3 hPa 0 mm - 638 W/m² -
1788607205 33.89° C 48% 1018.3 hPa 0 mm - 358 W/m² -
1788606905 34.44° C 46% 1018.3 hPa 0 mm - 569 W/m² -
1788606606 33.89° C 47% 1018.6 hPa 0 mm - 434 W/m² -
1788606307 34.44° C 45% 1018.6 hPa 0 mm - 376 W/m² -
1788606006 34.44° C 44% 1018.6 hPa 0 mm - 411 W/m² -
1788605705 33.89° C 46% 1018.3 hPa 0 mm - 689 W/m² -
1788605405 32.22° C 48% 1018.6 hPa 0 mm - 688 W/m² -
1788605105 32.22° C 50% 1018.6 hPa 0 mm - 677 W/m² -
1788604805 32.22° C 50% 1019 hPa 0 mm - 259 W/m² -
1788604506 31.67° C 52% 1018.3 hPa 0 mm - 629 W/m² -
1788604205 31.11° C 52% 1019 hPa 0 mm - 318 W/m² -
1788603905 31.11° C 53% 1018.6 hPa 0 mm - 261 W/m² -
1788603605 31.67° C 53% 1018.6 hPa 0 mm - 297 W/m² -
1788603305 31.67° C 52% 1019 hPa 0 mm - 548 W/m² -
1788603006 31.11° C 54% 1018.6 hPa 0 mm - 542 W/m² -
1788602705 31.11° C 55% 1018.6 hPa 0 mm - 541 W/m² -
1788602405 31.11° C 55% 1019 hPa 0 mm - 502 W/m² -
1788602105 31.11° C 54% 1018.6 hPa 0 mm - 462 W/m² -
1788601806 30.56° C 55% 1019 hPa 0 mm - 458 W/m² -
1788601505 30° C 56% 1019 hPa 0 mm - 435 W/m² -
1788601205 30° C 58% 1019 hPa 0 mm - 417 W/m² -
1788600906 29.44° C 58% 1018.6 hPa 0 mm - 423 W/m² -
1788600606 28.89° C 60% 1018.6 hPa 0 mm - 410 W/m² -
1788600307 28.33° C 61% 1018.6 hPa 0 mm - 390 W/m² -

* Rain latest hour (hover to see other rain measurements)
** Current wind speed in m/s (hover to see current wind gust speed)